LU3HGB-WX Weather Reports


time (UTC)temp
C
wind
direction
speed
KPH
gust
KPH
rain 1hr
cm
rain 24hr
cm
rain mn
cm
humidity
%
barometer
mb
20260507160245 13 12 4.8 14.5 0.00 0.00 0.08 25 1013.0
20260507155739 13 357 9.7 20.9 0.00 0.00 0.08 25 1014.0
20260507155239 13 355 9.7 17.7 0.00 0.00 0.08 25 1014.0
20260507154741 13 335 6.4 12.9 0.00 0.00 0.08 27 1014.0
20260507154240 13 2 14.5 22.5 0.00 0.00 0.08 25 1014.0
20260507153739 13 5 16.1 22.5 0.00 0.00 0.08 26 1014.0
20260507153241 13 2 8.0 19.3 0.00 0.00 0.08 27 1014.0
20260507152739 13 7 4.8 9.7 0.00 0.00 0.08 29 1013.0
20260507152240 13 356 11.3 19.3 0.00 0.00 0.08 27 1013.0
20260507151739 13 5 14.5 24.1 0.00 0.00 0.08 27 1013.0
20260507151239 12 350 12.9 17.7 0.00 0.00 0.08 26 1013.0
20260507150739 12 352 19.3 27.4 0.00 0.00 0.08 25 1013.0
20260507150240 12 355 14.5 20.9 0.00 0.00 0.08 25 1013.0
20260507145741 12 358 14.5 22.5 0.00 0.00 0.08 25 1013.0
20260507145239 12 356 12.9 20.9 0.00 0.00 0.08 25 1013.0
20260507144739 12 17 8.0 14.5 0.00 0.00 0.08 26 1013.0
20260507144239 12 2 6.4 12.9 0.00 0.00 0.08 26 1013.0
20260507143740 12 356 11.3 22.5 0.00 0.00 0.08 24 1013.0
20260507143240 12 3 9.7 14.5 0.00 0.00 0.08 25 1013.0
20260507142741 13 35 9.7 27.4 0.00 0.00 0.08 23 1013.0
20260507142239 13 1 14.5 24.1 0.00 0.00 0.08 22 1013.0
20260507141739 13 15 9.7 14.5 0.00 0.00 0.08 23 1012.0
20260507141240 13 21 9.7 16.1 0.00 0.00 0.08 21 1012.0
20260507140741 13 26 8.0 16.1 0.00 0.00 0.08 22 1012.0
20260507140239 13 2 8.0 14.5 0.00 0.00 0.08 22 1012.0
20260507135740 13 21 11.3 22.5 0.00 0.00 0.08 23 1012.0
20260507135239 13 358 9.7 20.9 0.00 0.00 0.08 22 1012.0
20260507134739 13 4 12.9 24.1 0.00 0.00 0.08 20 1012.0
20260507134239 13 12 11.3 24.1 0.00 0.00 0.08 21 1012.0
20260507133740 12 5 9.7 17.7 0.00 0.00 0.08 21 1012.0
20260507133239 12 8 12.9 19.3 0.00 0.00 0.08 20 1012.0
20260507132740 12 2 4.8 16.1 0.00 0.00 0.08 22 1012.0
20260507132240 12 19 8.0 14.5 0.00 0.00 0.08 21 1012.0
20260507131740 12 23 9.7 19.3 0.00 0.00 0.08 20 1012.0
20260507131240 12 18 6.4 17.7 0.00 0.00 0.08 22 1011.0
20260507130258 12 8 9.7 19.3 0.00 0.00 0.08 21 1011.0
20260507125740 12 23 9.7 19.3 0.00 0.00 0.08 21 1011.0
20260507125241 12 1 12.9 22.5 0.00 0.00 0.08 21 1011.0
20260507124740 12 15 11.3 16.1 0.00 0.00 0.08 21 1012.0
20260507124239 12 12 8.0 16.1 0.00 0.00 0.08 23 1011.0
20260507123740 12 350 9.7 14.5 0.00 0.00 0.08 24 1011.0
20260507123239 12 5 6.4 11.3 0.00 0.00 0.08 26 1011.0
20260507122739 12 6 8.0 19.3 0.00 0.00 0.08 27 1011.0
20260507122239 13 355 11.3 16.1 0.00 0.00 0.08 24 1010.0
20260507121745 13 356 8.0 17.7 0.00 0.00 0.08 20 1011.0
20260507121240 13 5 11.3 19.3 0.00 0.00 0.08 17 1011.0
20260507120739 13 358 9.7 17.7 0.00 0.00 0.08 17 1011.0
20260507120240 13 0 12.9 19.3 0.00 0.00 0.08 16 1011.0
20260507115739 13 355 9.7 16.1 0.00 0.00 0.08 17 1011.0
20260507115241 14 350 11.3 20.9 0.00 0.00 0.08 17 1011.0
20260507114740 14 346 9.7 20.9 0.00 0.00 0.08 17 1011.0
20260507114240 14 344 12.9 22.5 0.00 0.00 0.08 16 1011.0
20260507113740 14 331 16.1 25.7 0.00 0.00 0.08 16 1011.0
20260507113239 13 0 11.3 19.3 0.00 0.00 0.08 17 1011.0
20260507112741 13 3 9.7 12.9 0.00 0.00 0.08 19 1010.0
20260507112239 14 350 9.7 16.1 0.00 0.00 0.08 18 1010.0
20260507111739 14 6 8.0 14.5 0.00 0.00 0.08 20 1010.0
20260507111241 14 355 6.4 9.7 0.00 0.00 0.08 23 1009.0
20260507110739 14 354 12.9 19.3 0.00 0.00 0.08 20 1009.0
20260507110239 13 353 11.3 19.3 0.00 0.00 0.08 21 1009.0
20260507105739 13 338 8.0 14.5 0.00 0.00 0.08 21 1009.0
20260507105239 13 9 9.7 17.7 0.00 0.00 0.08 20 1009.0
20260507104740 13 5 16.1 27.4 0.00 0.00 0.08 21 1009.0
20260507104239 13 7 11.3 17.7 0.00 0.00 0.08 23 1008.0
20260507103739 13 2 14.5 22.5 0.00 0.00 0.08 24 1008.0
20260507103240 13 6 14.5 20.9 0.00 0.00 0.08 25 1008.0
20260507102739 13 3 12.9 19.3 0.00 0.00 0.08 25 1009.0
20260507102239 13 339 12.9 19.3 0.00 0.00 0.08 28 1008.0
20260507101741 13 325 3.2 11.3 0.00 0.00 0.08 30 1008.0
20260507101239 13 351 14.5 22.5 0.00 0.00 0.08 29 1008.0
20260507100740 12 350 14.5 22.5 0.00 0.00 0.08 32 1007.0
20260507100240 12 358 9.7 17.7 0.00 0.00 0.08 40 1008.0
20260507095740 12 357 3.2 6.4 0.00 0.00 0.08 53 1008.0
20260507095239 11 329 6.4 14.5 0.00 0.00 0.08 53 1009.0
20260507094739 11 296 3.2 6.4 0.00 0.00 0.08 63 1009.0
20260507094239 11 336 4.8 9.7 0.00 0.00 0.08 64 1009.0
20260507093745 11 277 6.4 8.0 0.00 0.00 0.08 63 1009.0
20260507093239 11 316 4.8 6.4 0.00 0.00 0.08 64 1009.0
20260507092740 11 10 6.4 16.1 0.00 0.00 0.08 64 1009.0
20260507092240 11 59 4.8 6.4 0.03 0.00 0.08 71 1009.0
20260507091740 11 20 1.6 1.6 0.03 0.00 0.08 75 1009.0
20260507091239 11 359 4.8 6.4 0.00 0.00 0.08 73 1009.0
20260507090739 11 37 3.2 4.8 0.00 0.00 0.08 72 1009.0
20260507090240 11 255 3.2 4.8 0.00 0.00 0.08 69 1009.0
20260507085739 11 273 4.8 6.4 0.00 0.00 0.08 71 1009.0
20260507085239 11 260 3.2 4.8 0.00 0.00 0.08 71 1009.0
20260507084739 11 299 8.0 12.9 0.03 0.00 0.08 70 1010.0
20260507084244 11 334 3.2 4.8 0.00 0.00 0.08 70 1010.0
20260507083739 12 346 6.4 12.9 0.41 0.00 0.08 62 1010.0
20260507083243 11 336 3.2 11.3 0.00 0.00 0.05 63 1010.0
20260507082739 12 3 1.6 3.2 0.00 0.00 0.05 70 1010.0
20260507082240 12 268 0.0 0.0 0.00 0.00 0.05 69 1009.0
20260507081740 12 319 0.0 1.6 0.00 0.00 0.05 62 1009.0
20260507081239 12 259 1.6 3.2 0.00 0.00 0.05 57 1009.0
20260507080740 12 125 3.2 6.4 0.00 0.00 0.05 56 1009.0
20260507080240 12 184 3.2 6.4 0.00 0.00 0.05 52 1008.0
20260507075739 12 68 1.6 8.0 0.00 0.00 0.05 57 1008.0
20260507075239 12 269 6.4 9.7 0.00 0.00 0.05 50 1008.0
20260507074739 12 279 6.4 9.7 0.00 0.00 0.05 53 1008.0
20260507074239 11 263 1.6 8.0 0.00 0.00 0.05 63 1008.0
20260507073739 11 137 1.6 4.8 0.00 0.00 0.05 69 1008.0
20260507073239 11 155 1.6 3.2 0.00 0.00 0.05 68 1008.0
20260507072739 11 287 4.8 11.3 0.00 0.00 0.05 74 1008.0
20260507072240 11 302 4.8 8.0 0.00 0.00 0.05 70 1008.0
20260507071740 11 302 3.2 6.4 0.00 0.00 0.05 71 1008.0
20260507071239 11 349 0.0 3.2 0.00 0.00 0.05 82 1008.0
20260507070739 11 281 3.2 4.8 0.00 0.00 0.05 83 1008.0
20260507070239 12 36 1.6 3.2 0.00 0.00 0.05 81 1008.0
20260507065739 12 201 0.0 3.2 0.00 0.00 0.05 80 1008.0
20260507065239 12 280 0.0 1.6 0.00 0.00 0.05 84 1008.0
20260507064740 12 230 1.6 3.2 0.00 0.00 0.05 90 1008.0
20260507064240 12 27 0.0 1.6 0.00 0.00 0.05 89 1008.0
20260507063739 12 198 1.6 1.6 0.00 0.00 0.05 87 1008.0
20260507063240 12 203 1.6 3.2 0.00 0.00 0.05 88 1008.0
20260507062739 12 200 3.2 4.8 0.00 0.00 0.05 89 1008.0
20260507062239 12 18 0.0 1.6 0.00 0.00 0.05 88 1008.0
20260507061739 12 277 0.0 1.6 0.00 0.00 0.05 87 1008.0
20260507061240 12 85 0.0 1.6 0.00 0.00 0.05 87 1008.0
20260507060739 12 337 0.0 1.6 0.00 0.00 0.05 91 1008.0
20260507060239 12 32 0.0 3.2 0.00 0.00 0.05 91 1008.0
20260507055739 12 240 3.2 4.8 0.00 0.00 0.05 92 1008.0
20260507055239 12 343 0.0 1.6 0.00 0.00 0.05 92 1008.0
20260507054739 12 267 0.0 1.6 0.00 0.00 0.05 93 1008.0
20260507054239 12 67 1.6 3.2 0.00 0.00 0.05 93 1008.0
20260507053739 12 123 0.0 3.2 0.00 0.00 0.05 93 1008.0
20260507053240 12 232 3.2 4.8 0.00 0.00 0.05 93 1008.0
20260507052739 12 66 0.0 3.2 0.00 0.00 0.05 93 1008.0
20260507052240 12 204 1.6 1.6 0.00 0.00 0.05 93 1008.0
20260507051739 12 284 1.6 3.2 0.00 0.00 0.05 93 1008.0
20260507051239 12 338 1.6 3.2 0.00 0.00 0.05 93 1008.0
20260507050739 12 318 1.6 3.2 0.00 0.00 0.05 93 1008.0
20260507050239 12 33 0.0 1.6 0.00 0.00 0.05 92 1008.0
20260507045740 13 338 1.6 3.2 0.00 0.00 0.05 92 1008.0
20260507045239 13 278 3.2 4.8 0.00 0.00 0.05 92 1008.0
20260507044739 13 0 0.0 0.0 0.00 0.00 0.05 92 1008.0
20260507044240 13 0 0.0 0.0 0.00 0.00 0.05 91 1008.0
20260507043740 13 289 0.0 1.6 0.00 0.00 0.05 91 1008.0
20260507043243 13 287 1.6 3.2 0.00 0.00 0.05 91 1008.0
20260507042739 13 70 0.0 0.0 0.00 0.00 0.05 91 1008.0
20260507042239 13 208 3.2 4.8 0.00 0.00 0.05 91 1008.0
20260507041739 13 269 0.0 3.2 0.00 0.00 0.05 91 1008.0
20260507041239 13 274 1.6 3.2 0.00 0.00 0.05 90 1008.0
20260507040739 13 294 3.2 4.8 0.00 0.00 0.05 89 1008.0
20260507040241 14 250 0.0 1.6 0.00 0.00 0.05 89 1008.0
20260507035739 14 258 1.6 3.2 0.00 0.00 0.05 89 1008.0
20260507035240 14 308 0.0 1.6 0.00 0.00 0.05 89 1008.0
20260507034739 14 333 0.0 1.6 0.00 0.00 0.05 87 1008.0
20260507033922 14 0 0.0 0.0 0.00 0.00 0.05 84 1008.0
20260507033240 14 131 0.0 1.6 0.00 0.00 0.05 87 1008.0
20260507032739 14 123 1.6 4.8 0.00 0.00 0.05 89 1008.0
20260507032240 15 355 0.0 1.6 0.00 0.00 0.05 87 1008.0
20260507031743 15 59 0.0 1.6 0.00 0.00 0.05 84 1008.0
20260507031239 15 183 3.2 4.8 0.00 0.00 0.05 81 1008.0
20260507030739 16 347 3.2 6.4 0.08 0.00 0.05 79 1008.0
20260507030240 17 304 8.0 12.9 1.14 0.00 0.03 76 1008.0
20260507025740 17 164 3.2 4.8 3.40 0.00 0.08 68 1008.0
20260507025239 17 0 4.8 9.7 0.00 0.00 0.00 70 1009.0
20260507024740 17 6 4.8 12.9 0.00 0.00 0.00 87 1008.0
20260507024239 18 351 1.6 3.2 0.00 0.00 0.00 85 1008.0
20260507023740 18 39 0.0 3.2 0.00 0.00 0.00 85 1007.0
20260507022750 17 215 0.0 1.6 0.00 0.00 0.00 87 1007.0
20260507022239 17 328 1.6 1.6 0.00 0.00 0.00 88 1007.0
20260507021740 17 333 1.6 3.2 0.00 0.00 0.00 87 1007.0
20260507021240 18 330 1.6 3.2 0.00 0.00 0.00 86 1007.0
20260507020739 18 326 0.0 1.6 0.00 0.00 0.00 86 1007.0
20260507020239 18 319 0.0 3.2 0.00 0.00 0.00 87 1008.0
20260507015741 18 342 1.6 3.2 0.00 0.00 0.00 86 1008.0
20260507015240 18 317 1.6 1.6 0.00 0.00 0.00 86 1008.0
20260507014740 18 285 0.0 3.2 0.00 0.00 0.00 86 1008.0
20260507014240 17 269 0.0 1.6 0.00 0.00 0.00 86 1008.0
20260507013739 17 326 0.0 1.6 0.00 0.00 0.00 86 1008.0
20260507013240 17 329 0.0 1.6 0.00 0.00 0.00 86 1008.0
20260507012740 17 57 0.0 1.6 0.00 0.00 0.00 86 1008.0
20260507012240 17 194 1.6 3.2 0.00 0.00 0.00 86 1008.0
20260507011739 17 165 0.0 1.6 0.00 0.00 0.00 86 1008.0
20260507011240 17 275 0.0 1.6 0.00 0.00 0.00 86 1008.0
20260507010739 17 284 0.0 1.6 0.00 0.00 0.00 86 1008.0
20260507010240 17 300 0.0 1.6 0.00 0.00 0.00 87 1008.0
20260507005740 17 301 3.2 3.2 0.00 0.00 0.00 86 1008.0
20260507005240 17 332 1.6 1.6 0.00 0.00 0.00 86 1008.0
20260507004739 17 331 1.6 3.2 0.00 0.00 0.00 86 1008.0
20260507004240 17 331 1.6 3.2 0.00 0.00 0.00 85 1008.0
20260507003739 17 321 0.0 1.6 0.00 0.00 0.00 85 1008.0
20260507003239 17 305 1.6 3.2 0.00 0.00 0.00 85 1008.0
20260507002739 17 350 1.6 3.2 0.00 0.00 0.00 85 1008.0
20260507002240 17 296 1.6 3.2 0.00 0.00 0.00 85 1008.0
20260507001739 17 347 0.0 0.0 0.00 0.00 0.00 85 1008.0
20260507001240 17 125 0.0 1.6 0.00 0.00 0.00 85 1008.0
20260507000739 17 292 3.2 3.2 0.00 0.00 0.00 86 1008.0
20260507000240 17 337 0.0 1.6 0.00 0.00 0.00 85 1008.0
20260506235739 17 352 1.6 1.6 0.00 0.00 0.00 85 1008.0
20260506235239 17 317 0.0 1.6 0.00 0.00 0.00 85 1008.0
20260506234739 17 329 0.0 1.6 0.00 0.00 0.00 85 1008.0
20260506234239 17 322 1.6 1.6 0.00 0.00 0.00 85 1008.0
20260506233740 17 288 1.6 3.2 0.00 0.00 0.00 84 1008.0
20260506233239 17 323 0.0 1.6 0.00 0.00 0.00 84 1008.0
20260506232739 17 328 0.0 1.6 0.00 0.00 0.00 84 1008.0
20260506232240 17 260 1.6 3.2 0.00 0.00 0.00 84 1007.0
20260506231739 17 208 0.0 1.6 0.00 0.00 0.00 84 1007.0
20260506231239 18 336 0.0 1.6 0.00 0.00 0.00 84 1007.0
20260506230739 18 339 1.6 4.8 0.00 0.00 0.00 84 1007.0
20260506230243 18 345 0.0 1.6 0.00 0.00 0.00 82 1007.0
20260506225739 18 4 0.0 3.2 0.00 0.00 0.00 80 1007.0
20260506225239 18 83 0.0 1.6 0.00 0.00 0.00 80 1007.0
20260506224739 19 162 1.6 3.2 0.00 0.00 0.00 80 1007.0
20260506224240 20 189 1.6 3.2 0.00 0.00 0.00 77 1007.0
20260506223740 20 296 0.0 3.2 0.00 0.00 0.00 77 1007.0
20260506223240 20 315 1.6 3.2 0.00 0.00 0.00 76 1007.0
20260506222748 20 305 3.2 3.2 0.00 0.00 0.00 76 1007.0
20260506222240 20 285 3.2 4.8 0.00 0.00 0.00 76 1007.0
20260506221739 20 311 1.6 3.2 0.00 0.00 0.00 75 1007.0
20260506221239 20 297 1.6 3.2 0.00 0.00 0.00 76 1007.0
20260506220744 20 24 0.0 1.6 0.00 0.00 0.00 76 1007.0
20260506220239 20 329 1.6 3.2 0.00 0.00 0.00 74 1006.0
20260506215739 21 335 1.6 3.2 0.00 0.00 0.00 73 1006.0
20260506215239 21 305 3.2 3.2 0.00 0.00 0.00 72 1006.0
20260506214741 21 350 0.0 1.6 0.00 0.00 0.00 71 1006.0
20260506214240 21 333 3.2 4.8 0.00 0.00 0.00 70 1006.0
20260506213740 22 324 3.2 3.2 0.00 0.00 0.00 69 1006.0
20260506213239 22 354 3.2 4.8 0.00 0.00 0.00 67 1005.0
20260506212739 23 341 3.2 6.4 0.00 0.00 0.00 66 1005.0
20260506212239 23 339 3.2 6.4 0.00 0.00 0.00 64 1005.0
20260506211739 23 9 1.6 4.8 0.00 0.00 0.00 57 1005.0
20260506211240 24 354 0.0 1.6 0.00 0.00 0.00 52 1005.0
20260506210739 25 353 0.0 1.6 0.00 0.00 0.00 51 1005.0
20260506210239 25 20 0.0 1.6 0.00 0.00 0.00 49 1005.0
20260506205739 25 286 0.0 1.6 0.00 0.00 0.00 47 1005.0
20260506205239 26 3 0.0 1.6 0.00 0.00 0.00 46 1005.0
20260506204740 26 126 3.2 6.4 0.00 0.00 0.00 43 1005.0
20260506204239 26 143 3.2 4.8 0.00 0.00 0.00 42 1005.0
20260506203740 27 139 1.6 4.8 0.00 0.00 0.00 41 1005.0
20260506203239 27 135 3.2 6.4 0.00 0.00 0.00 38 1005.0
20260506202739 27 85 1.6 3.2 0.00 0.00 0.00 38 1005.0
20260506202239 27 142 3.2 4.8 0.00 0.00 0.00 38 1005.0
20260506201740 28 132 1.6 3.2 0.00 0.00 0.00 37 1005.0
20260506201239 28 51 1.6 3.2 0.00 0.00 0.00 36 1005.0
20260506200739 28 234 1.6 3.2 0.00 0.00 0.00 36 1005.0
20260506200239 28 75 3.2 4.8 0.00 0.00 0.00 36 1005.0
20260506195739 28 137 1.6 3.2 0.00 0.00 0.00 36 1005.0
20260506195239 28 24 1.6 4.8 0.00 0.00 0.00 34 1005.0
20260506194739 28 312 1.6 3.2 0.00 0.00 0.00 35 1005.0
20260506194240 28 349 1.6 3.2 0.00 0.00 0.00 34 1005.0
20260506193740 28 50 1.6 3.2 0.00 0.00 0.00 34 1005.0
20260506193239 28 160 3.2 6.4 0.00 0.00 0.00 34 1005.0
20260506192739 29 142 3.2 8.0 0.00 0.00 0.00 32 1005.0
20260506192239 28 255 1.6 3.2 0.00 0.00 0.00 37 1005.0
20260506191739 28 45 1.6 4.8 0.00 0.00 0.00 35 1005.0
20260506191241 28 280 1.6 3.2 0.00 0.00 0.00 36 1005.0
20260506190739 27 151 3.2 4.8 0.00 0.00 0.00 39 1005.0
20260506190240 28 141 3.2 9.7 0.00 0.00 0.00 37 1005.0
20260506185739 27 217 0.0 3.2 0.00 0.00 0.00 41 1005.0
20260506185240 27 288 1.6 4.8 0.00 0.00 0.00 41 1005.0
20260506184740 27 124 4.8 6.4 0.00 0.00 0.00 40 1005.0
20260506184240 27 125 4.8 9.7 0.00 0.00 0.00 39 1005.0
20260506183740 27 105 3.2 6.4 0.00 0.00 0.00 40 1005.0
20260506183239 27 227 3.2 6.4 0.00 0.00 0.00 42 1006.0
20260506182740 27 231 1.6 3.2 0.00 0.00 0.00 41 1006.0
20260506182240 27 81 3.2 6.4 0.00 0.00 0.00 41 1006.0
20260506181739 27 249 3.2 6.4 0.00 0.00 0.00 42 1006.0
20260506181239 27 90 1.6 3.2 0.00 0.00 0.00 42 1006.0
20260506180739 27 350 3.2 4.8 0.00 0.00 0.00 43 1006.0
20260506180243 27 153 3.2 6.4 0.00 0.00 0.00 41 1006.0
20260506175740 27 319 1.6 3.2 0.00 0.00 0.00 42 1006.0
20260506175240 27 72 1.6 3.2 0.00 0.00 0.00 47 1007.0
20260506174739 27 303 1.6 4.8 0.00 0.00 0.00 44 1007.0
20260506174240 27 57 3.2 6.4 0.00 0.00 0.00 42 1007.0
20260506173739 27 86 3.2 6.4 0.00 0.00 0.00 44 1007.0
20260506173240 27 135 6.4 12.9 0.00 0.00 0.00 43 1007.0
20260506172739 27 142 3.2 8.0 0.00 0.00 0.00 44 1007.0
20260506172240 27 131 4.8 6.4 0.00 0.00 0.00 43 1007.0
20260506171739 27 91 3.2 6.4 0.00 0.00 0.00 43 1007.0
20260506171240 27 200 1.6 3.2 0.00 0.00 0.00 45 1007.0
20260506170740 27 47 3.2 8.0 0.00 0.00 0.00 47 1007.0
20260506170240 27 122 3.2 8.0 0.00 0.00 0.00 43 1007.0
20260506165739 27 120 1.6 3.2 0.00 0.00 0.00 44 1008.0
20260506165239 27 129 3.2 8.0 0.00 0.00 0.00 43 1008.0
20260506164740 26 315 3.2 6.4 0.00 0.00 0.00 47 1008.0
20260506164240 26 313 1.6 3.2 0.00 0.00 0.00 48 1008.0
20260506163739 26 343 3.2 4.8 0.00 0.00 0.00 49 1008.0
20260506163239 26 333 4.8 6.4 0.00 0.00 0.00 47 1008.0
20260506162739 26 7 1.6 4.8 0.00 0.00 0.00 48 1008.0
20260506162240 26 138 3.2 6.4 0.00 0.00 0.00 45 1008.0
20260506161740 26 340 1.6 4.8 0.00 0.00 0.00 45 1008.0
20260506161240 26 52 1.6 4.8 0.00 0.00 0.00 47 1008.0
20260506160739 26 348 3.2 4.8 0.00 0.00 0.00 47 1008.0